Back to catalog

STARLINK-31377

AliveCommunicationsVLEO
NORAD 58938·PAYLOAD·🇺🇸 United States

Launched Feb 10, 2024 from Vandenberg Space Force Base

Loading…

Next Passes (next 24 hours)

TLE

FreshSource: CelesTrak SupGP

Epoch: Sep 14, 2026, 13:34 UTC

1 58938C 24027H   26257.56576389  .00067165  00000+0  19846-2 0  2570
2 58938  53.1576 151.2311 0001163  98.2112 179.3292 15.34353500    13

Track STARLINK-31377 in real time with AllMySat

Download on the App Store